Location: Altmatt
(47.1333°N, 8.7000°E)
Time: 19:09:34
(UTC+00:00)

ATLAS CENTAUR R/B - Pass Details

Date: 13 July 2020
Orbit: 475 x 672 km, 64.7° (Epoch: 13 July)

Event Time Altitude Azimuth Distance (km) Brightness Sun altitude
Rises 20:34:55 0° 302° (WNW) 2,542 6.4 -10.6°
Reaches altitude 10° 20:39:01 10° 256° (WSW) 1,644 4.1 -11.1°
Maximum altitude 20:39:25 10° 250° (WSW) 1,634 4.0 -11.1°
Drops below altitude 10° 20:39:49 10° 244° (WSW) 1,642 3.9 -11.1°
Enters shadow 20:43:37 - 200° (SSW) 2,427 4.3 -11.6°
